Location: Songkhla
(7.2000°N, 100.6000°E)
Time: 04:17:37
(UTC+07:00)

BRICSAT 2 - Pass Details

Date: 23 June 2021
Orbit: 295 x 638 km, 28.5° (Epoch: 28 July)

Event Time Altitude Azimuth Distance (km) Brightness Sun altitude
Rises 20:29:04 0° 289° (WNW) 2,517 ? -25.9°
Reaches altitude 10° 20:31:13 10° 282° (WNW) 1,703 ? -26.3°
Enters shadow 20:33:48 34° 254° (WSW) 886 ? -26.9°
Maximum altitude 20:35:00 44° 209° (SSW) 754 - -27.1°
Drops below altitude 10° 20:39:16 10° 137° (SE) 1,909 - -28.0°
Sets 20:41:47 0° 131° (SE) 2,862 - -28.6°
